Location: Ramiseto
(44.4167°N, 10.2667°E)
Time: 21:09:13
(UTC+00:00)

Daily predictions for brighter satellites

Satellite Brightness Start Highest point End
(mag) Time Altitude Azimuth Time Altitude Azimuth Time Altitude Azimuth
CZ-4C R/B 2.7 18:27:20 10° SW 18:32:11 61° NW 18:38:04 10° NNE
Cosmos 2344 4.0 18:26:16 10° S 18:33:01 36° ESE 18:39:46 10° NE
Cosmos 2322 4.2 18:27:48 10° NNW 18:33:13 44° ENE 18:38:36 10° SE
Ariane Rocket 3.9 18:29:11 10° SE 18:33:32 30° ENE 18:37:54 10° N
Cosmos 1269 Rocket 4.0 18:29:15 10° SSW 18:34:32 75° ESE 18:39:51 10° NNE
Cosmos 1302 Rocket 4.1 18:29:17 10° NNW 18:34:37 74° ENE 18:39:52 10° SSE
Cosmos 2228 3.0 18:33:19 10° S 18:37:39 72° E 18:41:58 10° NNE
SL-08 RB Rocket 4.1 18:33:17 10° S 18:37:56 74° WSW 18:42:35 10° NNW
Okean-O 3.7 18:34:28 10° S 18:38:45 48° W 18:43:04 10° NNW
MetOp-A 4.2 18:34:52 10° SSE 18:40:09 63° ENE 18:45:27 10° N
ARGOS 4.0 18:36:00 10° S 18:41:16 54° W 18:46:33 10° NNW
Cosmos 482 Debris 4.3 18:38:24 10° WSW 18:41:26 45° NNW 18:43:34 10° NE
Cosmos 1408 3.3 18:39:17 10° N 18:42:32 32° ENE 18:45:46 10° SE
RESURS DK-1 3.4 18:40:23 10° SSE 18:43:46 25° ESE 18:47:10 10° NE
Cosmos 1300 3.8 18:41:24 10° SSW 18:45:06 50° WNW 18:48:50 10° N
CSL-04 Rocket 4.0 18:46:08 10° S 18:51:24 67° WSW 18:56:40 10° NNW
CENTAUR R/B 4.1 18:44:44 10° NW 18:52:40 51° WSW 19:01:10 10° S
Cosmos 2058 3.9 18:49:56 10° NNE 18:53:36 29° ENE 18:57:06 11° SE
CZ-2C R/B 3.5 18:50:27 10° N 18:55:30 54° WNW 19:00:36 10° SSW
Cosmos 1992 Rocket 4.3 18:51:50 10° N 18:56:54 49° ENE 19:01:52 10° SE
Cosmos 2058 Rocket 3.3 18:53:10 10° SSE 18:57:19 46° E 19:01:30 10° NNE
DMSP B5D2-2 4.2 18:52:58 10° NNE 18:58:14 84° WNW 19:03:30 10° SSW
Cosmos 2360 Rocket 2.8 18:53:38 10° NNW 18:59:13 60° WSW 19:04:44 10° S
ATLAS 3B R/B 3.2 18:52:45 10° NNW 18:59:33 51° NE 19:05:56 13° ESE
COSMOS 2487 2.2 18:57:53 10° SSW 19:01:15 73° ESE 19:04:40 10° NNE
Cosmos 1689 Rocket 4.5 18:59:38 10° N 19:02:06 27° WNW 19:04:33 10° SW
USA 186 2.0 18:59:11 10° S 19:02:24 72° WSW 19:05:33 10° NNW
COSMOS 2428 3.1 18:57:09 10° NNW 19:02:45 51° ENE 19:07:47 13° SE
Cosmos 1953 Rocket 3.5 18:58:54 10° N 19:03:17 83° E 19:07:36 10° S
USA 215 4.0 18:58:43 10° E 19:04:48 43° NNE 19:10:54 10° NW
SME Rocket 3.7 19:02:30 10° N 19:06:19 61° WNW 19:11:08 10° SSW
Cosmos 1092 Rocket 4.0 19:00:33 10° N 19:06:49 69° E 19:12:59 10° SSE
Cosmos 2333 4.3 19:02:03 10° NNW 19:07:51 89° WSW 19:13:35 10° SSE
Cosmos 1818 3.8 19:06:00 10° S 19:11:06 44° ESE 19:16:17 10° NE
FALCON 9 DEB 3.2 19:09:02 10° SW 19:12:22 51° SE 19:15:42 10° ENE
Cosmos 909 Rocket 4.2 19:06:49 10° S 19:12:55 47° ESE 19:18:56 10° NE
Cosmos 44 3.5 19:10:38 10° SSW 19:15:32 54° ESE 19:20:45 10° NE
ERS-2 3.7 19:12:15 10° N 19:15:40 38° WNW 19:19:02 10° SW
Resurs 01 Rocket 2.4 19:12:45 16° SE 19:15:43 35° ENE 19:19:46 10° N
Cosmos 2219 Rocket 2.2 19:10:31 10° NNW 19:16:14 76° ENE 19:21:14 14° SSE
Cosmos 1455 2.0 19:14:55 10° S 19:18:38 74° E 19:22:23 10° NNE
Resurs 1-3 3.5 19:23:14 13° SSE 19:27:06 76° ENE 19:31:30 10° N
IGS 5A 4.1 19:27:42 23° ESE 19:29:42 38° ENE 19:33:33 10° N
Cosmos 1633 4.2 19:27:12 10° NNE 19:29:47 18° ENE 19:30:05 18° ENE
Lacrosse 5 rocket 4.0 19:28:14 10° WNW 19:31:10 18° NNW 19:34:13 10° NNE
Cosmos 1356 4.1 19:28:03 10° N 19:31:16 36° ENE 19:32:13 30° ESE
ATLAS 5 CENTAUR R/B 0.9 19:30:41 10° NW 19:32:31 55° SW 19:33:14 34° SSE
Abrixas rocket 3.4 19:32:06 10° SW 19:32:30 14° SW 19:32:30 14° SW
Cosmos 405 Rocket 3.1 19:31:46 10° N 19:35:40 48° ENE 19:37:21 29° SE
Cosmos 1428 Rocket 4.5 19:30:13 10° N 19:36:30 89° E 19:42:48 10° S
Cosmos 1140 Rocket 4.4 19:38:38 25° ESE 19:39:24 26° E 19:43:35 10° NE
SJ-6B 4.1 19:37:28 10° SSW 19:40:55 36° W 19:44:25 10° NNW
Cosmos 2279 Rocket 4.0 19:34:53 10° S 19:40:56 59° E 19:47:00 10° NNE
SPOT 5 4.5 19:40:17 16° ENE 19:41:21 17° ENE 19:44:18 10° NNE
Cosmos 2237 Rocket 2.8 19:37:38 10° NNW 19:42:57 40° ENE 19:45:36 25° ESE
Exosat Rocket 3.7 19:37:15 10° NNW 19:43:47 88° ENE 19:47:11 23° SSE
BREEZE-M DEB (TANK) 3.7 19:39:11 10° W 19:43:52 78° N 19:48:44 13° E
BREEZE-M DEB (TANK) 4.5 19:42:18 10° W 19:45:35 60° N 19:54:37 10° ENE
SL-8 R/B 3.6 19:41:49 10° WNW 19:46:41 88° SSW 19:48:58 32° ESE
CZ-2C R/B 3.9 19:44:49 10° NNE 19:49:05 44° E 19:50:38 32° SSE
OBJECT-B 3.0 19:46:42 10° SSW 19:49:24 25° W 19:52:08 10° NW
Cosmos 2026 Rocket 4.1 19:44:09 10° NNW 19:50:12 72° W 19:56:16 10° S
Terra 3.6 19:50:06 15° ENE 19:50:57 16° ENE 19:53:45 10° NNE
MetOp-B 4.2 19:52:09 29° SE 19:54:51 62° ENE 20:00:10 10° N
Cosmos 2227 Rocket 2.9 19:57:05 31° ESE 19:57:34 31° ESE 20:02:30 10° NE
SPOT 1/Viking Rocket 3.8 19:58:12 34° SE 20:00:14 53° ENE 20:05:19 10° N
Cosmos 389 Rocket 2.3 20:00:14 44° S 20:01:15 83° E 20:04:49 10° NNE
Cosmos 2251 Rocket 3.8 19:56:03 10° SSW 20:01:24 71° WNW 20:06:46 10° NNE
Cosmos 2297 Rocket 2.4 20:02:12 27° SSE 20:04:52 46° ESE 20:10:15 10° NE
Cosmos 2333 Rocket 3.4 20:01:05 10° NW 20:06:22 38° WSW 20:10:56 13° S
SPOT 3 Rocket 3.6 20:03:45 26° S 20:06:44 80° WSW 20:11:57 10° NNW
Cosmos 2266 Rocket 4.3 20:01:15 10° N 20:07:28 51° ENE 20:09:47 35° SE
Cosmos 2219 3.4 20:05:52 35° SSE 20:07:31 44° ESE 20:12:50 10° NE
Cosmos 1190 Rocket 4.4 20:07:40 39° ESE 20:08:11 40° ESE 20:13:03 10° NE
BREEZE-M DEB (TANK) 2.6 20:06:20 10° WNW 20:08:17 41° N 20:08:17 41° N
ATLAS 2AS CENTAUR R/B 4.0 20:01:09 10° WSW 20:08:46 49° NW 20:16:15 10° NNE
Cosmos 1825 3.7 20:05:58 10° NNW 20:09:23 33° W 20:11:58 15° SSW
ARIANE 5 R/B 3.0 20:09:19 42° E 20:09:55 44° ENE 20:14:06 10° N
Ariane Rocket 4.3 20:07:45 10° SSW 20:12:23 36° W 20:17:02 10° NNW
Timation 2 Rocket 4.3 20:10:14 28° SSE 20:13:21 46° ESE 20:19:24 10° NE
RESURS DK-1 4.2 20:17:57 10° WSW 20:21:39 32° NW 20:25:24 10° N
Landsat 7 4.0 20:20:37 37° S 20:22:28 69° WSW 20:27:14 10° NNW
USA 245 3.1 20:24:37 81° ESE 20:24:43 82° ENE 20:28:13 10° N
Genesis I 4.2 20:21:38 10° NNW 20:25:21 35° NE 20:25:22 35° NE
Cosmos-2242 3.0 20:25:50 64° E 20:25:50 64° E 20:30:03 10° NNE
Meteor 2-16 Rocket 4.5 20:21:42 10° N 20:27:48 61° ENE 20:29:25 46° SE
Cosmos 1655 Rocket 3.9 20:29:04 10° N 20:35:23 87° W 20:37:46 41° S
SL-16 R/B 2.9 20:31:38 10° NNW 20:36:59 39° NE 20:37:53 37° ENE
Cosmos 1980 3.7 20:32:36 10° NNW 20:38:18 75° WSW 20:39:45 51° S
Cosmos 2151 3.3 20:40:43 10° NNW 20:44:59 61° W 20:45:17 59° WSW
COSMOS 2428 4.4 20:42:03 10° NW 20:46:41 26° WSW 20:49:49 16° SW
Cosmos 2344 4.4 20:39:52 10° WSW 20:47:04 50° NW 20:54:54 10° NNE
Meteor 2-3 Rocket 3.7 20:41:23 10° NNW 20:47:11 84° W 20:48:26 56° S
USA 215 3.2 20:45:38 50° SE 20:47:31 79° SW 20:54:06 10° NW
Meteor 1-27 4.1 20:47:48 62° SSE 20:48:43 76° E 20:54:32 10° NNE
ATLAS 3B R/B 3.6 20:43:39 10° NW 20:50:13 42° WSW 20:53:12 29° SSW
Resurs 01 Rocket 3.6 20:50:18 18° SW 20:52:16 24° W 20:55:54 10° NW
ERS-1 Rocket 2.8 20:54:40 82° ESE 20:54:47 83° ENE 20:59:51 10° NNW
Cosmos 407 Rocket 3.9 20:53:35 26° SW 20:56:24 59° WNW 21:01:31 10° NNE
Cosmos 2219 Rocket 4.5 20:56:02 10° WNW 20:59:28 17° W 21:02:54 10° SW
Okean 3 Rocket 3.9 20:55:28 10° N 20:59:21 62° NNE 20:59:21 62° NNE
CARTOSAT-1 4.1 21:04:22 55° WNW 21:04:22 55° WNW 21:08:17 10° NNW
Cosmos 1766 Rocket 4.0 21:00:02 10° N 21:03:29 56° N 21:03:29 56° N
Cosmos 1633 4.4 21:01:29 10° NNW 21:04:10 27° WNW 21:04:10 27° WNW
Meteor 2-15 4.3 21:09:37 67° E 21:09:37 67° E 21:15:34 10° NNE
Cosmos 1954 Rocket 4.0 21:12:17 70° NNE 21:12:17 70° NNE 21:16:52 10° NNE
Lacrosse 5 rocket 4.1 21:09:01 10° NNW 21:11:45 16° N 21:14:12 11° NE
COSMOS 2455 3.0 21:18:15 59° ENE 21:18:15 59° ENE 21:23:17 10° NE
SPOT 5 3.3 21:19:30 54° WNW 21:19:30 54° WNW 21:23:34 10° NNW
Cosmos 2237 Rocket 3.3 21:21:56 10° NW 21:26:53 32° WSW 21:27:26 32° WSW
SeaSat 1 4.2 21:22:46 10° NE 21:24:38 22° NE 21:24:38 22° NE
Terra 2.4 21:28:59 56° NW 21:28:59 56° NW 21:32:54 10° NNW
Timation 1 Rocket 4.3 21:33:37 82° NNW 21:33:37 82° NNW 21:39:27 10° NNE
Cosmos 2082 3.9 21:39:13 68° N 21:39:13 68° N 21:44:12 10° NNE
Cosmos 2263 Rocket 3.9 21:42:46 20° NE 21:42:46 20° NE 21:44:45 10° NE
Cosmos 2227 Rocket 3.3 21:38:46 26° WSW 21:41:27 42° WNW 21:46:50 10° NNE
Cosmos 2297 Rocket 3.9 21:44:10 10° WSW 21:49:05 30° NW 21:54:03 10° N
Cosmos 841 Rocket 4.5 21:47:40 10° NNW 21:51:30 41° NNE 21:51:30 41° NNE
Cosmos 1745 Rocket 4.2 21:50:56 10° N 21:56:33 63° NE 21:56:33 63° NE
NOSS 3-1 (A) 4.4 21:55:07 10° NNW 22:02:23 55° NE 22:04:04 48° E
Cosmos 1763 Rocket 4.5 21:59:31 10° NNW 22:02:58 42° NW 22:02:58 42° NW
S3M 4.2 22:08:54 65° NNE 22:08:54 65° NNE 22:14:23 10° N
SL-16 R/B 3.6 22:15:57 10° NW 22:19:46 30° W 22:19:46 30° W
NOSS 3-1 (C) 4.0 22:21:04 10° NW 22:28:41 83° SW 22:28:42 82° SW
Cosmos 1943 4.2 22:45:20 10° NNW 22:48:59 42° NW 22:48:59 42° NW
Lacrosse 5 rocket 3.9 22:48:01 10° NW 22:49:48 21° NNW 22:49:48 21° NNW
SeaSat 1 4.2 23:00:39 10° N 23:04:24 28° NW 23:04:24 28° NW
Cosmos 2315 Rocket 4.5 23:10:31 57° NNW 23:10:31 57° NNW 23:15:42 10° N
Cosmos 2263 Rocket 3.5 23:24:25 35° NW 23:24:25 35° NW 23:28:45 10° NNE
USA 281 3.4 23:33:03 68° NNE 23:33:03 68° NNE 23:38:54 10° NNW
Cosmos 1844 Rocket 3.9 23:39:31 37° NE 23:39:31 37° NE 23:42:53 10° NNE
Cosmos 2074 Rocket 4.5 23:38:28 10° N 23:43:22 57° NNW 23:43:22 57° NNW
SJ 16-02 4.2 23:56:02 10° ENE 23:56:02 10° ENE 23:56:12 10° ENE
